{"data":{"norad_id":51468,"epoch":"2026-09-20T03:43:58.740672Z","epoch_age_seconds":78167,"freshness":"FRESH","line1":"1 51468U 22010N   26263.15554098  .00001148  00000+0  45126-4 0  9990","line2":"2 51468  53.1603 116.9919 0001252  96.9152 263.1993 15.34389856255997","mean_motion":15.34389856,"eccentricity":0.0001252,"inclination_deg":53.1603,"raan_deg":116.9919,"arg_perigee_deg":96.9152,"mean_anomaly_deg":263.1993,"bstar":4.5126e-5,"rev_number":25599,"period_min":93.848378517956,"perigee_km":461.87691350607,"apogee_km":463.58986745185,"semimajor_km":6840.870390479,"source":"CELESTRAK","updated_at":"2026-09-20T09:00:39.595574Z"}}